Regional Weather Roundup
Issued by NWS

Home | Current Version | Previous Version | Text Only | Print | Product List | Glossary Off
Versions: 1 2 3 4 5 6 7 8 9 10 11 12 13 14 15 16 17 18 19 20 21 22 23 24 25 26 27 28 29 30 31 32 33 34 35 36 37 38 39 40 41 42 43 44 45 46 47 48 49 50

000
ASUS45 KPSR 100910
RWRAZ

ARIZONA HOURLY REGIONAL WEATHER ROUNDUP
NATIONAL WEATHER SERVICE PHOENIX AZ
200 AM MST WED FEB 10 2016

NOTE: FAIR INDICATES FEW OR NO CLOUDS BELOW 12,000 FEET WITH NO
SIGNIFICANT WEATHER AND/OR OBSTRUCTIONS TO VISIBILITY.

AZZ001>003-036-101000-
NORTHWEST ARIZONA

CITY           SKY/WX    TMP DP  RH WIND       PRES   REMARKS
KINGMAN        CLEAR     48  22  35 N3        30.30S
$$

AZZ004>008-015-016-018-101000-
NORTH CENTRAL ARIZONA

CITY           SKY/WX    TMP DP  RH WIND       PRES   REMARKS
GRAND CANYON   PTCLDY    25  17  72 NE3       30.43R
WILLIAMS       CLEAR     30  14  51 S9        30.46R WCI  22
PRESCOTT       CLEAR     32  19  58 SW3       30.35R
FLAGSTAFF      CLEAR     24  12  60 NE3       30.42R
PAYSON         CLEAR     46  18  31 NE8       30.35S
PAGE           CLEAR     35  26  69 CALM      30.42R
$$

AZZ009>014-017-101000-
NORTHEAST ARIZONA

CITY           SKY/WX    TMP DP  RH WIND       PRES   REMARKS
WINSLOW        CLEAR     28  19  69 E6        30.40R WCI  22
SAINT JOHNS    CLEAR     30  18  60 S8        30.40S WCI  22
WINDOW ROCK    CLEAR     26   0  32 CALM      30.43F
SHOW LOW       CLEAR     30  18  59 CALM      30.42F
$$

AZZ023-101000-
GREATER PHOENIX AREA

CITY           SKY/WX    TMP DP  RH WIND       PRES   REMARKS
PHOENIX        CLEAR     68  19  15 E8        30.14R
BUCKEYE        CLEAR     50  27  40 N7        30.17S
LUKE AFB       CLEAR     54  30  40 N9        30.15R
DEER VALLEY    CLEAR     59  21  23 CALM      30.16S
SCOTTSDALE     CLEAR     61  23  23 NE3       30.17S
MESA-GATEWAY   CLEAR     50  30  46 CALM      30.17R
$$

AZZ027-028-101000-
SOUTHWEST MARICOPA COUNTY AND PINAL COUNTY

CITY           SKY/WX    TMP DP  RH WIND       PRES   REMARKS
CASA GRANDE    CLEAR     63  23  22 N9        30.16S
GILA BEND      FAIR      50  29  43 E7        30.12S
$$

AZZ503-504-507>509-101000-
SOUTHEAST ARIZONA

CITY           SKY/WX    TMP DP  RH WIND       PRES   REMARKS
TUCSON         CLEAR     52  20  28 S7        30.22S
DAVIS-MONTHAN  CLEAR     59  19  21 E10       30.20S
NOGALES        CLEAR     50  18  28 NE9       30.25S
SIERRA VISTA   PTCLDY    46  17  31 SE9       30.31R
DOUGLAS        PTCLDY    35  16  45 W5        30.29S WCI  31
SAFFORD        CLEAR     46  24  42 E7        30.28R
$$

AZZ020-021-025-026-031-101000-
SOUTHWEST ARIZONA

CITY           SKY/WX    TMP DP  RH WIND       PRES   REMARKS
YUMA           CLEAR     59  27  29 W3        30.12R
$$

CAZ031-033-041-043-047-048-061-101000-
SOUTHERN CALIFORNIA

CITY           SKY/WX    TMP DP  RH WIND       PRES   REMARKS
DOWNTOWN L.A.  CLEAR     61  38  42 CALM      30.11S
L.A. AIRPORT   PTCLDY    62  41  46 CALM      30.12R
SAN DIEGO      PTCLDY    63  39  41 CALM      30.12S
BURBANK        CLEAR     67  23  19 NW5       30.13S
ONTARIO        PTCLDY    57  30  35 CALM      30.14S
RIVERSIDE      CLEAR     59  31  34 NE7       30.15R
PALM SPRINGS   PTCLDY    63  26  24 NW6       30.16F
EL CENTRO NAS  CLEAR     56  24  29 W7        30.14R
IMPERIAL       CLEAR     53  29  39 W3        30.12R
BLYTHE         CLEAR     60  24  25 CALM      30.16S
NEEDLES        CLEAR     63  26  24 NW8       30.20R
$$

NVZ020-UTZ003-101000-
SOUTHERN NEVADA-UTAH

CITY           SKY/WX    TMP DP  RH WIND       PRES   REMARKS
LAS VEGAS      PTCLDY    52  27  38 SW3       30.23F
SALT LAKE CITY FOG       26  24  92 N5        30.47F VSB 1/4 WCI  20
$$

NMZ009-TXZ055-101000-
NEW MEXICO-WEST TEXAS

CITY           SKY/WX    TMP DP  RH WIND       PRES   REMARKS
ALBUQUERQUE    CLOUDY    33  18  53 CALM      30.41R
EL PASO        PTCLDY    41  19  41 N8        30.34S
$$


........................KEY........................
SKY/WX - SKY CONDITION/WEATHER
TMP    - TEMPERATURE IN FAHRENHEIT
DP     - DEW POINT IN FAHRENHEIT
RH     - RELATIVE HUMIDITY IN PERCENT
WIND   - DIRECTION AND SPEED IN MILES PER HOUR (MPH)
VRB    - VARIABLE WIND DIRECTION
PRES   - MEAN SEA LEVEL PRESSURE IN INCHES OF MERCURY
         F - FALLING PRESSURE   R - RISING PRESSURE
         S - STEADY PRESSURE
VSB    - VISIBILITY IN MILES
HX     - HEAT INDEX IN FAHRENHEIT
WCI    - WIND CHILL INDEX IN FAHRENHEIT
TC     - TEMPERATURE IN CELSIUS WHICH IS ALSO KNOWN AS
         TEMPERATURE IN CENTIGRADE
AFB    - AIR FORCE BASE
         LUKE AFB IS LUKE AIR FORCE BASE
         DAVIS-MONTHAN IS DAVIS-MONTHAN AIR FORCE BASE
NAS    - NAVAL AIR STATION
         EL CENTRO NAS IS EL CENTRO NAVAL AIR STATION
N/A    - NOT AVAILABLE




USA.gov is the U.S. government's official web portal to all federal, state and local government web resources and services.